SCP
0 0 0 0 0 0 0 -0 -0 0 0 0 0 0 0 0 0 0 0 0 0 0 0 0 0 0 0 0 0 0 0 0 -0 -0 0 -0 0 0 0 0 0 0 -0 0
0 0 0 0 0 0 0 -0 0 0 0 0 0 0 0 0 0 0 0 0 0 0 0 0 0 0 0 0 0 0 0 0 0 0 0 0 0 0 0 0 0 0 0 0
0 0 0 0 0 0 0 0 -0 0 0 0 0 0 0 0 0 0 0 0 0 0 0 0 0 0 0 0 0 -0 0 0 0 0 0 0 0 0 0 0 0 -0 -0 -0
0 0 0 0 0 0 0 0 0 0 0 0 0 0 0 0 0 0 0 0 0 0 0 -0 0 0 0 0 0 0 0 0 0 0 -0 -0 0 -0 -0 -0 -0 -0 -0 -0
0 0 0 0 0 -0 0 0 0 0 0 0 0 0 0 0 0 0 0 0 0 0 0 0 -0 0 0 0 0 0 0 0 0 -0 -0 -0 0 -0 -0 -0 -0 -0 -0 -0
0 0 0 0 0 -0 0 0 0 0 0 0 0 0 0 0 0 0 0 0 0 0 0 -0 -0 0 0 0 0 0 0 0 0 0 -0 -0 0 0 0 -0 -0 0 0 -0
0 0 0 0 0 0 0 0 0 0 0 0 0 0 0 0 0 -0 0 0 0 0 -0 -0 -0 0 0 0 0 0 0 0 0 0 0 0 0 0 0 -0 -0 -0 -0 0
0 0 0 0 0 0 0 0 0 0 0 0 0 0 0 0 0 0 0 0 0 0 0 0 0 0 0 0 0 0 0 0 0 0 0 -0 0 0 -0 -0 0 0 0 0
0 0 0 0 0 0 0 0 0 0 0 0 0 0 0 0 0 -0 0 0 -0 0 0 0 0 0 0 0 0 0 0 0 0 0 0 0 0 -0 0 -0 0 0 0 0
0 0 0 0 0 0 0 0 0 0 0 0 0 0 0 0 0 0 0 0 0 0 0 0 0 0 0 0 0 0 0 0 0 0 0 0 0 -0 -0 -0 0 0 0 0
0 0 0 0 0 0 0 0 0 0 0 0 0 0 0 0 0 0 0 -0 0 0 -0 0 0 0 0 0 0 0 0 0 0 0 0 0 0 0 0 0 -0 -0 -0 0
0 0 0 0 0 0 0 0 0 0 0 0 0 -0 -0 0 0 0 0 0 -0 0 -0 0 0 0 0 0 0 0 0 0 0 0 0 0 0 0 0 0 0 0 -0 0
0 0 0 0 0 0 0 0 0 0 0 0 0 0 0 0 0 0 0 0 0 0 0 0 0 0 0 0 0 0 0 0 0 0 0 0 0 0 0 0 0 0 0 0
0 0 0 0 0 0 0 0 0 0 0 0 0 0 0 0 0 0 -0 0 0 0 0 0 0 0 0 0 0 0 0 0 0 0 0 0 0 0 0 0 0 0 0 0
0 0 0 0 0 0 0 0 0 0 0 0 0 0 0 0 0 0 0 -0 0 -0 0 0 0 0 -0 0 0 0 0 0 0 0 0 0 0 0 0 0 0 0 0 0
0 0 0 0 0 0 0 0 0 0 0 0 0 0 0 0 0 0 0 0 0 0 -0 0 0 -0 0 -0 0 0 0 0 0 0 0 0 0 0 0 0 0 0 0 0
0 0 0 0 0 0 0 0 0 0 0 0 0 0 0 0 0 0 0 0 0 0 -0 -0 0 -0 0 0 0 0 0 0 0 0 0 0 0 0 0 0 0 0 0 0
0 0 0 0 0 0 0 0 0 0 0 0 0 0 0 0 0 0 0 0 0 -0 -0 -0 -0 0 0 0 -0 -0 -0 0 -0 0 0 0 0 0 0 0 0 -0 0 0
0 0 0 0 0 0 0 0 0 0 0 0 0 0 0 0 0 0 0 0 -0 0 -0 -0 -0 0 0 0 -0 -0 -0 0 0 0 0 0 0 0 0 0 0 0 0 0
0 0 0 0 0 0 0 0 0 0 0 0 0 0 0 0 0 0 0 0 -0 -0 -0 -0 -0 0 0 0 0 0 0 0 0 0 -0 0 0 0 0 0 0 0 0 0
0 0 0 0 0 0 0 0 0 0 0 0 0 0 0 0 0 0 0 0 0 -0 -0 -0 0 0 0 0 0 0 0 0 0 0 0 0 0 0 0 -0 -0 0 0 0
0 0 0 0 0 0 0 0 0 0 0 0 0 0 0 0 0 0 0 0 -0 -0 -0 -0 0 0 0 0 0 0 0 0 0 0 -0 0 0 0 0 0 0 0 0 0
0 0 0 0 0 0 0 0 0 0 0 0 0 0 0 0 0 0 0 0 -0 -0 -0 -0 0 0 0 0 0 0 0 0 0 -0 -0 -0 -0 0 0 0 0 0 0 0
0 0 0 0 0 0 0 0 0 0 0 0 0 0 0 0 0 0 0 0 0 0 -0 -0 0 0 0 0 0 0 0 0 0 0 0 0 0 0 0 0 0 0 0 0
0 0 0 0 0 0 0 0 0 0 0 0 0 0 0 0 0 0 0 0 -0 0 0 0 0 0 0 0 0 0 0 0 0 0 0 0 0 0 0 0 0 0 0 0
0 0 0 0 0 0 0 0 0 0 0 0 0 0 0 0 0 0 0 0 0 -0 0 -0 0 0 0 0 0 0 0 0 0 0 0 0 0 0 0 0 0 0 0 0
0 0 0 0 0 0 0 0 0 0 0 0 0 0 0 0 0 0 0 0 0 -0 0 0 0 0 0 0 0 0 0 0 0 0 0 0 0 0 0 0 0 0 0 0
Wind_Speed_500mb
71 72 74 82 86 88 82 25 8 29 29 8 10 14 15 17 17 20 18 17 20 19 19 14 18 22 10 26 28 17 25 10 26 41 43 36 34 36 29 14 25 18 18 17
68 72 72 77 79 76 68 28 11 21 22 11 14 17 10 11 21 20 12 14 13 23 19 13 21 29 14 26 24 7 3 9 17 18 8 6 13 26 26 33 16 35 28 17
62 70 67 74 71 66 52 18 9 8 14 10 16 18 10 18 20 19 12 25 28 21 21 27 23 37 17 18 34 49 44 12 27 32 34 27 33 31 28 25 16 33 40 45
61 67 63 69 66 59 37 16 9 6 13 11 21 16 9 22 19 10 26 11 16 23 13 36 25 26 44 36 36 9 7 12 29 39 49 51 50 44 38 36 39 41 40 48
60 63 65 63 62 55 18 17 13 12 19 17 18 1 15 22 21 13 14 19 34 36 28 34 52 41 28 11 12 6 7 10 29 44 49 45 35 30 33 32 37 45 51 67
58 61 67 61 57 48 13 13 10 5 12 13 11 10 15 18 32 22 26 29 28 36 38 51 72 70 64 36 16 9 8 7 12 18 23 37 20 8 9 14 14 25 23 39
57 60 61 55 51 40 18 11 8 7 9 10 13 20 28 27 29 32 39 38 23 27 71 79 50 34 30 23 25 27 9 10 7 15 26 8 12 29 32 26 35 26 20 24
58 59 57 49 44 29 11 8 7 7 11 22 20 23 28 30 30 26 33 23 27 50 40 12 17 1 7 8 14 11 25 9 9 10 17 32 11 19 29 32 30 3 19 26
57 60 55 47 39 24 11 8 4 3 12 1 15 28 24 19 23 20 15 21 38 21 5 7 11 9 13 10 17 6 15 13 4 9 11 8 14 53 67 50 10 23 32 29
52 59 54 43 38 23 12 8 13 5 13 16 13 13 17 15 15 12 27 25 15 17 6 6 8 9 18 12 18 15 14 7 11 15 9 4 35 52 58 12 15 44 48 41
51 55 56 40 35 22 14 13 15 10 13 38 27 19 26 24 23 7 20 18 6 7 9 6 8 7 10 8 20 10 10 15 9 10 9 12 59 36 15 20 61 63 58 54
58 53 50 38 35 22 18 10 15 16 26 30 44 49 48 49 42 39 9 10 10 7 5 5 7 5 8 18 9 10 7 6 9 7 8 31 51 42 50 44 46 45 52 5
57 50 44 36 32 23 18 15 16 22 22 36 18 10 15 17 23 26 15 11 7 7 7 7 5 8 3 8 8 9 8 7 6 12 5 30 33 55 54 49 49 55 56 72
48 45 40 32 29 23 17 19 12 19 13 10 9 16 22 16 24 29 32 35 30 26 32 10 4 6 5 5 7 5 7 19 16 9 16 45 41 60 57 54 53 59 68 62
56 48 34 28 25 21 16 23 26 26 14 11 27 32 5 9 14 23 25 31 29 14 6 6 4 7 8 6 7 4 15 9 8 7 36 24 26 59 56 59 57 60 71 76
51 45 29 24 24 17 8 6 9 17 24 10 8 17 12 11 17 20 24 19 21 14 8 8 4 6 9 6 5 3 36 38 29 10 25 35 28 52 58 58 62 70 74 75
46 41 25 26 22 20 12 6 11 15 12 8 12 12 9 14 13 10 14 18 10 12 5 5 2 4 5 3 5 23 34 27 28 26 9 24 46 39 59 63 74 83 88 91
44 32 23 21 19 20 21 20 22 20 13 10 6 9 11 6 10 5 4 8 8 9 6 5 2 4 4 2 10 19 24 15 21 24 27 30 40 52 62 60 77 87 84 88
43 34 20 16 15 15 8 16 20 24 13 8 9 6 5 4 12 5 3 4 5 2 3 2 3 2 2 9 17 12 17 12 13 20 25 31 37 42 46 53 63 73 69 74
41 29 17 11 14 18 24 15 10 20 14 15 12 20 10 10 6 4 4 5 2 4 3 3 4 1 7 14 5 6 8 6 8 12 19 21 29 36 43 49 50 57 58 59
40 20 14 14 25 20 13 12 13 17 11 17 17 30 17 8 8 4 3 3 2 5 6 3 3 2 5 4 8 8 8 11 15 16 18 25 27 29 35 41 43 46 49 51
44 22 26 28 15 14 12 10 10 12 10 18 19 19 18 8 8 8 9 5 5 4 8 4 3 5 8 13 15 13 14 12 17 20 26 23 26 28 31 35 39 42 42 43
43 21 18 17 17 14 14 18 10 9 12 20 24 13 11 13 13 10 7 9 5 4 3 2 4 15 15 17 17 18 18 18 17 22 24 26 28 28 30 33 33 35 39 39
17 18 14 15 13 14 13 14 13 18 15 24 15 12 11 11 9 7 7 5 7 4 8 5 8 14 18 13 16 8 13 14 19 24 27 27 26 28 29 28 28 30 35 34
17 16 13 18 14 12 18 19 10 17 17 15 11 8 8 10 8 6 5 7 5 2 3 6 18 13 18 13 13 13 13 16 18 21 23 25 25 26 27 25 24 27 29 31
11 12 8 9 13 17 22 25 21 20 17 10 8 6 7 10 6 7 9 4 3 6 8 29 18 14 17 18 15 16 16 20 22 22 24 23 23 23 24 25 24 25 26 29
8 11 22 15 10 20 24 28 25 22 20 9 5 8 7 3 6 6 3 2 10 20 31 27 22 21 19 18 20 21 21 20 23 26 26 24 23 23 22 23 23 23 23 24
Wind_Direction_500mb
350 351 350 350 350 353 359 359 315 343 12 352 2 5 337 315 304 302 301 283 278 273 302 281 285 263 282 296 312 282 292 296 284 282 280 269 260 270 241 245 259 247 291 291
345 346 349 350 352 354 353 335 300 342 13 21 5 342 312 291 304 318 320 294 273 312 297 300 264 280 313 303 290 258 284 244 291 295 178 193 235 241 250 262 240 258 273 259
342 342 349 347 351 354 356 337 325 9 39 65 344 350 333 335 329 316 283 288 296 300 300 274 274 284 308 310 285 280 286 233 236 261 272 280 277 257 258 266 267 260 246 255
340 339 345 344 351 356 10 357 29 346 322 355 339 317 300 326 348 314 303 287 281 309 282 301 269 308 306 298 296 271 252 262 256 256 259 269 270 277 272 259 255 258 270 270
338 338 335 343 350 355 15 356 344 318 293 305 313 165 340 322 333 302 303 283 306 310 291 281 288 298 297 268 303 308 256 278 293 285 277 268 277 278 290 273 257 262 262 266
334 331 333 339 347 358 19 358 347 344 292 316 296 10 330 308 319 292 262 292 301 297 292 310 294 284 275 255 258 275 274 263 296 284 311 310 276 72 313 293 279 269 271 289
329 326 330 335 342 353 6 350 347 312 298 302 314 308 308 304 305 285 289 300 301 286 309 306 289 252 252 245 248 208 254 278 259 284 297 268 113 13 351 318 300 332 295 296
324 323 321 330 337 340 359 329 353 322 291 317 289 310 313 305 303 287 291 313 313 310 312 305 313 290 210 245 222 247 216 267 296 289 307 274 52 358 337 327 304 246 307 307
320 314 314 325 332 325 339 293 300 300 294 40 315 308 304 305 321 318 310 334 333 346 292 320 327 340 329 312 326 43 312 323 254 298 287 303 8 352 333 314 221 354 329 308
310 314 307 318 325 316 311 279 293 241 270 284 295 292 318 301 315 289 303 337 334 348 335 320 323 329 342 319 315 340 317 319 287 303 281 275 8 339 318 312 322 310 299 285
298 305 303 311 316 306 287 274 270 242 261 286 263 267 266 276 269 277 327 329 25 308 342 335 342 301 331 286 319 345 326 330 341 311 312 341 342 328 339 296 298 293 292 275
290 298 295 301 307 294 271 268 272 272 262 266 283 271 260 250 258 279 292 268 296 295 308 5 301 302 307 319 317 9 360 354 309 317 308 290 311 307 314 323 320 327 326 106
282 285 284 295 298 287 261 246 254 287 286 304 267 270 267 268 263 240 228 257 246 251 332 310 278 283 328 317 344 307 327 39 268 296 279 316 346 349 359 3 1 13 40 84
281 276 270 282 282 275 262 252 247 253 275 283 283 291 285 267 262 254 276 270 271 273 290 238 271 275 10 309 296 302 328 306 307 267 302 316 351 357 7 18 31 42 56 68
266 256 259 271 263 266 261 264 262 238 233 297 298 310 295 232 250 269 276 261 264 279 256 224 252 281 315 277 241 37 330 309 338 321 324 339 324 2 18 31 42 53 63 68
260 251 254 247 252 253 253 282 252 216 225 282 298 310 280 246 258 256 252 250 250 236 251 236 215 283 316 307 335 298 335 334 351 305 340 20 0 21 30 40 52 62 68 72
252 247 237 239 246 235 204 235 198 186 198 264 286 285 252 276 271 254 219 211 243 240 252 264 109 299 332 314 319 314 336 358 24 34 5 23 36 29 44 52 65 70 72 75
239 228 222 238 242 248 254 228 195 190 205 246 272 279 270 214 292 300 232 243 209 244 300 184 276 293 280 260 307 342 350 347 41 54 58 74 70 64 56 57 67 69 69 77
221 207 207 227 221 222 217 180 193 211 218 271 235 264 294 279 277 296 250 243 256 266 216 308 259 272 340 315 344 360 5 34 65 68 66 81 63 65 61 68 74 79 78 80
189 165 172 214 219 166 157 159 178 205 223 227 250 241 260 286 311 292 263 189 264 233 165 188 266 186 102 357 32 46 42 46 69 83 74 78 69 66 65 67 72 80 85 87
169 173 184 191 164 145 191 206 206 195 222 214 232 226 254 218 271 282 197 320 298 259 132 247 254 136 34 17 116 95 86 89 81 101 110 109 90 78 77 77 77 80 85 88
175 158 158 154 186 204 208 197 198 222 236 189 209 209 211 239 210 228 173 242 176 263 139 213 248 90 28 138 130 117 96 103 99 99 102 103 96 92 86 82 82 85 89 94
152 175 179 185 177 212 211 192 196 215 213 189 185 188 209 184 217 241 216 225 193 235 186 202 59 118 100 129 125 111 90 96 102 110 113 111 104 98 93 90 86 86 90 96
171 179 196 204 187 220 198 203 195 208 187 166 182 211 207 203 213 231 243 134 122 241 187 167 133 137 119 131 138 131 112 122 113 119 120 119 114 106 102 98 98 100 99 101
202 205 213 202 214 204 197 195 192 183 177 173 182 220 233 200 241 229 265 214 171 277 82 145 145 120 141 131 183 158 134 139 132 130 129 128 124 120 112 108 107 105 107 108
220 229 225 188 194 199 183 187 194 177 180 180 210 213 216 219 227 224 218 248 131 126 146 140 157 154 170 181 184 170 154 145 143 143 140 135 129 126 121 118 118 117 118 117
219 228 216 206 220 202 184 181 188 179 201 211 183 218 204 229 228 220 182 45 107 122 151 150 174 177 171 150 143 145 145 139 140 141 140 138 133 127 125 123 123 121 123 128
Wind_Speed_850mb
71 72 74 82 86 88 82 25 8 29 29 8 10 14 15 17 17 20 18 17 20 19 19 14 18 22 10 26 28 17 25 10 26 41 43 36 34 36 29 14 25 18 18 17
68 72 72 77 79 76 68 28 11 21 22 11 14 17 10 11 21 20 12 14 13 23 19 13 21 29 14 26 24 7 3 9 17 18 8 6 13 26 26 33 16 35 28 17
62 70 67 74 71 66 52 18 9 8 14 10 16 18 10 18 20 19 12 25 28 21 21 27 23 37 17 18 34 49 44 12 27 32 34 27 33 31 28 25 16 33 40 45
61 67 63 69 66 59 37 16 9 6 13 11 21 16 9 22 19 10 26 11 16 23 13 36 25 26 44 36 36 9 7 12 29 39 49 51 50 44 38 36 39 41 40 48
60 63 65 63 62 55 18 17 13 12 19 17 18 1 15 22 21 13 14 19 34 36 28 34 52 41 28 11 12 6 7 10 29 44 49 45 35 30 33 32 37 45 51 67
58 61 67 61 57 48 13 13 10 5 12 13 11 10 15 18 32 22 26 29 28 36 38 51 72 70 64 36 16 9 8 7 12 18 23 37 20 8 9 14 14 25 23 39
57 60 61 55 51 40 18 11 8 7 9 10 13 20 28 27 29 32 39 38 23 27 71 79 50 34 30 23 25 27 9 10 7 15 26 8 12 29 32 26 35 26 20 24
58 59 57 49 44 29 11 8 7 7 11 22 20 23 28 30 30 26 33 23 27 50 40 12 17 1 7 8 14 11 25 9 9 10 17 32 11 19 29 32 30 3 19 26
57 60 55 47 39 24 11 8 4 3 12 1 15 28 24 19 23 20 15 21 38 21 5 7 11 9 13 10 17 6 15 13 4 9 11 8 14 53 67 50 10 23 32 29
52 59 54 43 38 23 12 8 13 5 13 16 13 13 17 15 15 12 27 25 15 17 6 6 8 9 18 12 18 15 14 7 11 15 9 4 35 52 58 12 15 44 48 41
51 55 56 40 35 22 14 13 15 10 13 38 27 19 26 24 23 7 20 18 6 7 9 6 8 7 10 8 20 10 10 15 9 10 9 12 59 36 15 20 61 63 58 54
58 53 50 38 35 22 18 10 15 16 26 30 44 49 48 49 42 39 9 10 10 7 5 5 7 5 8 18 9 10 7 6 9 7 8 31 51 42 50 44 46 45 52 5
57 50 44 36 32 23 18 15 16 22 22 36 18 10 15 17 23 26 15 11 7 7 7 7 5 8 3 8 8 9 8 7 6 12 5 30 33 55 54 49 49 55 56 72
48 45 40 32 29 23 17 19 12 19 13 10 9 16 22 16 24 29 32 35 30 26 32 10 4 6 5 5 7 5 7 19 16 9 16 45 41 60 57 54 53 59 68 62
56 48 34 28 25 21 16 23 26 26 14 11 27 32 5 9 14 23 25 31 29 14 6 6 4 7 8 6 7 4 15 9 8 7 36 24 26 59 56 59 57 60 71 76
51 45 29 24 24 17 8 6 9 17 24 10 8 17 12 11 17 20 24 19 21 14 8 8 4 6 9 6 5 3 36 38 29 10 25 35 28 52 58 58 62 70 74 75
46 41 25 26 22 20 12 6 11 15 12 8 12 12 9 14 13 10 14 18 10 12 5 5 2 4 5 3 5 23 34 27 28 26 9 24 46 39 59 63 74 83 88 91
44 32 23 21 19 20 21 20 22 20 13 10 6 9 11 6 10 5 4 8 8 9 6 5 2 4 4 2 10 19 24 15 21 24 27 30 40 52 62 60 77 87 84 88
43 34 20 16 15 15 8 16 20 24 13 8 9 6 5 4 12 5 3 4 5 2 3 2 3 2 2 9 17 12 17 12 13 20 25 31 37 42 46 53 63 73 69 74
41 29 17 11 14 18 24 15 10 20 14 15 12 20 10 10 6 4 4 5 2 4 3 3 4 1 7 14 5 6 8 6 8 12 19 21 29 36 43 49 50 57 58 59
40 20 14 14 25 20 13 12 13 17 11 17 17 30 17 8 8 4 3 3 2 5 6 3 3 2 5 4 8 8 8 11 15 16 18 25 27 29 35 41 43 46 49 51
44 22 26 28 15 14 12 10 10 12 10 18 19 19 18 8 8 8 9 5 5 4 8 4 3 5 8 13 15 13 14 12 17 20 26 23 26 28 31 35 39 42 42 43
43 21 18 17 17 14 14 18 10 9 12 20 24 13 11 13 13 10 7 9 5 4 3 2 4 15 15 17 17 18 18 18 17 22 24 26 28 28 30 33 33 35 39 39
17 18 14 15 13 14 13 14 13 18 15 24 15 12 11 11 9 7 7 5 7 4 8 5 8 14 18 13 16 8 13 14 19 24 27 27 26 28 29 28 28 30 35 34
17 16 13 18 14 12 18 19 10 17 17 15 11 8 8 10 8 6 5 7 5 2 3 6 18 13 18 13 13 13 13 16 18 21 23 25 25 26 27 25 24 27 29 31
11 12 8 9 13 17 22 25 21 20 17 10 8 6 7 10 6 7 9 4 3 6 8 29 18 14 17 18 15 16 16 20 22 22 24 23 23 23 24 25 24 25 26 29
8 11 22 15 10 20 24 28 25 22 20 9 5 8 7 3 6 6 3 2 10 20 31 27 22 21 19 18 20 21 21 20 23 26 26 24 23 23 22 23 23 23 23 24
Wind_Direction_850mb
350 351 350 350 350 353 359 359 315 343 12 352 2 5 337 315 304 302 301 283 278 273 302 281 285 263 282 296 312 282 292 296 284 282 280 269 260 270 241 245 259 247 291 291
345 346 349 350 352 354 353 335 300 342 13 21 5 342 312 291 304 318 320 294 273 312 297 300 264 280 313 303 290 258 284 244 291 295 178 193 235 241 250 262 240 258 273 259
342 342 349 347 351 354 356 337 325 9 39 65 344 350 333 335 329 316 283 288 296 300 300 274 274 284 308 310 285 280 286 233 236 261 272 280 277 257 258 266 267 260 246 255
340 339 345 344 351 356 10 357 29 346 322 355 339 317 300 326 348 314 303 287 281 309 282 301 269 308 306 298 296 271 252 262 256 256 259 269 270 277 272 259 255 258 270 270
338 338 335 343 350 355 15 356 344 318 293 305 313 165 340 322 333 302 303 283 306 310 291 281 288 298 297 268 303 308 256 278 293 285 277 268 277 278 290 273 257 262 262 266
334 331 333 339 347 358 19 358 347 344 292 316 296 10 330 308 319 292 262 292 301 297 292 310 294 284 275 255 258 275 274 263 296 284 311 310 276 72 313 293 279 269 271 289
329 326 330 335 342 353 6 350 347 312 298 302 314 308 308 304 305 285 289 300 301 286 309 306 289 252 252 245 248 208 254 278 259 284 297 268 113 13 351 318 300 332 295 296
324 323 321 330 337 340 359 329 353 322 291 317 289 310 313 305 303 287 291 313 313 310 312 305 313 290 210 245 222 247 216 267 296 289 307 274 52 358 337 327 304 246 307 307
320 314 314 325 332 325 339 293 300 300 294 40 315 308 304 305 321 318 310 334 333 346 292 320 327 340 329 312 326 43 312 323 254 298 287 303 8 352 333 314 221 354 329 308
310 314 307 318 325 316 311 279 293 241 270 284 295 292 318 301 315 289 303 337 334 348 335 320 323 329 342 319 315 340 317 319 287 303 281 275 8 339 318 312 322 310 299 285
298 305 303 311 316 306 287 274 270 242 261 286 263 267 266 276 269 277 327 329 25 308 342 335 342 301 331 286 319 345 326 330 341 311 312 341 342 328 339 296 298 293 292 275
290 298 295 301 307 294 271 268 272 272 262 266 283 271 260 250 258 279 292 268 296 295 308 5 301 302 307 319 317 9 360 354 309 317 308 290 311 307 314 323 320 327 326 106
282 285 284 295 298 287 261 246 254 287 286 304 267 270 267 268 263 240 228 257 246 251 332 310 278 283 328 317 344 307 327 39 268 296 279 316 346 349 359 3 1 13 40 84
281 276 270 282 282 275 262 252 247 253 275 283 283 291 285 267 262 254 276 270 271 273 290 238 271 275 10 309 296 302 328 306 307 267 302 316 351 357 7 18 31 42 56 68
266 256 259 271 263 266 261 264 262 238 233 297 298 310 295 232 250 269 276 261 264 279 256 224 252 281 315 277 241 37 330 309 338 321 324 339 324 2 18 31 42 53 63 68
260 251 254 247 252 253 253 282 252 216 225 282 298 310 280 246 258 256 252 250 250 236 251 236 215 283 316 307 335 298 335 334 351 305 340 20 0 21 30 40 52 62 68 72
252 247 237 239 246 235 204 235 198 186 198 264 286 285 252 276 271 254 219 211 243 240 252 264 109 299 332 314 319 314 336 358 24 34 5 23 36 29 44 52 65 70 72 75
239 228 222 238 242 248 254 228 195 190 205 246 272 279 270 214 292 300 232 243 209 244 300 184 276 293 280 260 307 342 350 347 41 54 58 74 70 64 56 57 67 69 69 77
221 207 207 227 221 222 217 180 193 211 218 271 235 264 294 279 277 296 250 243 256 266 216 308 259 272 340 315 344 360 5 34 65 68 66 81 63 65 61 68 74 79 78 80
189 165 172 214 219 166 157 159 178 205 223 227 250 241 260 286 311 292 263 189 264 233 165 188 266 186 102 357 32 46 42 46 69 83 74 78 69 66 65 67 72 80 85 87
169 173 184 191 164 145 191 206 206 195 222 214 232 226 254 218 271 282 197 320 298 259 132 247 254 136 34 17 116 95 86 89 81 101 110 109 90 78 77 77 77 80 85 88
175 158 158 154 186 204 208 197 198 222 236 189 209 209 211 239 210 228 173 242 176 263 139 213 248 90 28 138 130 117 96 103 99 99 102 103 96 92 86 82 82 85 89 94
152 175 179 185 177 212 211 192 196 215 213 189 185 188 209 184 217 241 216 225 193 235 186 202 59 118 100 129 125 111 90 96 102 110 113 111 104 98 93 90 86 86 90 96
171 179 196 204 187 220 198 203 195 208 187 166 182 211 207 203 213 231 243 134 122 241 187 167 133 137 119 131 138 131 112 122 113 119 120 119 114 106 102 98 98 100 99 101
202 205 213 202 214 204 197 195 192 183 177 173 182 220 233 200 241 229 265 214 171 277 82 145 145 120 141 131 183 158 134 139 132 130 129 128 124 120 112 108 107 105 107 108
220 229 225 188 194 199 183 187 194 177 180 180 210 213 216 219 227 224 218 248 131 126 146 140 157 154 170 181 184 170 154 145 143 143 140 135 129 126 121 118 118 117 118 117
219 228 216 206 220 202 184 181 188 179 201 211 183 218 204 229 228 220 182 45 107 122 151 150 174 177 171 150 143 145 145 139 140 141 140 138 133 127 125 123 123 121 123 128